EW4337 Weather Reports


Display with metric or nautical units.
time (UTC)temp
F
wind
direction
speed
MPH
gust
MPH
rain 1hr
in
rain 24hr
in
rain mn
in
humidity
%
barometer
mb
20170721042705 54 172 0.0 2.0 0.00 0.26 0.00 96 1013.9
20170721041705 54 172 0.0 3.0 0.00 0.30 0.00 96 1013.9
20170721040704 53 236 1.0 3.0 0.00 0.34 0.00 95 1013.9
20170721035705 53 236 0.0 2.0 0.00 0.35 0.00 95 1013.8
20170721034705 53 236 0.0 0.0 0.00 0.35 0.00 95 1013.8
20170721033705 53 236 0.0 0.0 0.00 0.35 0.00 95 1013.7
20170721032705 54 236 0.0 1.0 0.00 0.35 0.00 95 1013.7
20170721031704 54 236 0.0 0.0 0.00 0.35 0.00 95 1013.7
20170721030705 54 236 0.0 0.0 0.00 0.35 0.00 95 1013.6
20170721025705 54 236 0.0 1.0 0.00 0.35 0.00 95 1013.7
20170721024705 54 236 0.0 2.0 0.00 0.35 0.00 95 1013.5
20170721023705 54 236 0.0 1.0 0.00 0.35 0.00 94 1013.5
20170721022705 54 236 0.0 1.0 0.00 0.35 0.00 94 1013.4
20170721021705 54 236 0.0 1.0 0.00 0.35 0.00 94 1013.3
20170721020704 54 236 0.0 2.0 0.00 0.35 0.00 94 1013.2
20170721015705 54 236 0.0 3.0 0.00 0.35 0.00 94 1013.1
20170721014705 55 236 0.0 2.0 0.00 0.35 0.00 94 1013.1
20170721013705 55 236 0.0 2.0 0.00 0.35 0.00 93 1013.1
20170721012705 55 236 0.0 2.0 0.00 0.35 0.00 93 1013.1
20170721011705 55 236 0.0 1.0 0.00 0.35 0.00 93 1013.1
20170721010705 55 236 0.0 3.0 0.00 0.35 0.00 93 1013.2
20170721005704 56 236 0.0 2.0 0.00 0.35 0.00 93 1013.1
20170721004705 56 235 0.0 0.0 0.00 0.35 0.00 92 1013.1
20170721003704 56 236 0.0 1.0 0.00 0.35 0.00 93 1012.9
20170721002705 56 236 0.0 2.0 0.00 0.35 0.00 92 1012.9
20170721001705 56 236 1.0 3.0 0.00 0.35 0.00 92 1013.0
20170721000706 57 226 2.0 5.0 0.00 0.36 0.00 92 1012.9
20170720235705 57 251 2.0 5.0 0.00 0.37 0.00 92 1012.9
20170720234705 57 227 2.0 5.0 0.00 0.37 0.00 92 1012.8
20170720233704 57 227 3.0 5.0 0.00 0.37 0.00 92 1012.7
20170720232705 58 247 3.0 8.0 0.00 0.37 0.00 93 1012.6
20170720231705 58 217 5.0 8.0 0.00 0.37 0.00 93 1012.6
20170720230704 58 235 3.0 9.0 0.00 0.37 0.00 93 1012.5
20170720225705 59 225 5.0 9.0 0.00 0.37 0.00 93 1012.4
20170720224705 59 229 3.0 7.0 0.00 0.37 0.00 93 1012.2
20170720223705 60 236 3.0 6.0 0.00 0.37 0.00 93 1012.2
20170720222705 60 240 3.0 8.0 0.00 0.37 0.00 93 1012.0
20170720221705 60 242 4.0 9.0 0.00 0.37 0.00 93 1012.0
20170720220705 60 235 5.0 12.0 0.00 0.37 0.00 93 1011.9
20170720215705 60 231 5.0 10.0 0.00 0.37 0.37 92 1011.8
20170720214706 61 256 5.0 9.0 0.00 0.37 0.37 92 1011.7
20170720213705 61 248 7.0 12.0 0.00 0.37 0.37 92 1011.5
20170720212705 61 244 5.0 9.0 0.00 0.37 0.37 91 1011.6
20170720211706 61 350 6.0 12.0 0.00 0.37 0.37 91 1011.5
20170720210705 62 235 6.0 10.0 0.00 0.37 0.37 91 1011.5
20170720205705 62 245 5.0 15.0 0.00 0.37 0.37 91 1011.4
20170720204705 62 245 7.0 13.0 0.00 0.37 0.37 91 1011.2
20170720203705 62 248 6.0 14.0 0.00 0.37 0.37 91 1011.0
20170720202704 63 257 7.0 15.0 0.00 0.37 0.37 91 1010.9
20170720201705 63 239 9.0 18.0 0.00 0.37 0.37 92 1010.9
20170720200705 64 234 7.0 13.0 0.00 0.37 0.37 93 1010.7
20170720195704 64 239 6.0 14.0 0.00 0.37 0.37 93 1010.6
20170720194705 64 249 7.0 12.0 0.00 0.37 0.37 93 1010.3
20170720193705 65 235 7.0 12.0 0.00 0.37 0.37 94 1010.0
20170720192705 65 238 5.0 10.0 0.00 0.37 0.37 93 1009.8
20170720191705 65 257 4.0 7.0 0.00 0.37 0.37 93 1009.6
20170720190705 65 243 4.0 12.0 0.00 0.37 0.37 93 1009.5
20170720185705 65 247 7.0 14.0 0.02 0.37 0.37 93 1009.3
20170720184704 65 229 10.0 13.0 0.10 0.37 0.37 93 1009.2
20170720183705 66 227 6.0 12.0 0.13 0.37 0.37 92 1009.0
20170720182705 66 240 4.0 8.0 0.13 0.37 0.37 91 1009.0
20170720181705 66 191 2.0 8.0 0.13 0.37 0.37 90 1009.0
20170720180704 67 165 2.0 6.0 0.13 0.37 0.37 88 1008.6
20170720175705 68 224 2.0 12.0 0.11 0.35 0.35 84 1008.2
20170720174705 70 246 5.0 17.0 0.03 0.27 0.27 81 1008.2
20170720173705 72 250 1.0 3.0 0.00 0.24 0.24 78 1007.7
20170720172705 72 237 1.0 2.0 0.00 0.24 0.24 77 1007.8
20170720171705 73 237 1.0 3.0 0.00 0.24 0.24 76 1007.7
20170720170705 73 231 3.0 8.0 0.00 0.24 0.24 74 1007.6
20170720165705 73 274 3.0 9.0 0.00 0.24 0.24 75 1007.6
20170720164705 73 238 5.0 10.0 0.00 0.24 0.24 75 1007.5
20170720163705 74 248 5.0 12.0 0.00 0.24 0.24 74 1007.6
20170720162705 74 247 5.0 10.0 0.00 0.24 0.24 77 1007.6
20170720161705 74 267 6.0 10.0 0.00 0.24 0.24 77 1007.5
20170720160705 74 293 4.0 10.0 0.00 0.24 0.24 78 1007.4
20170720155705 74 249 4.0 8.0 0.00 0.24 0.24 79 1007.5
20170720154705 73 323 3.0 10.0 0.02 0.24 0.24 81 1007.5
20170720153705 73 242 4.0 10.0 0.02 0.24 0.24 80 1007.7
20170720152705 72 247 6.0 12.0 0.02 0.24 0.24 79 1007.7
20170720151705 72 262 5.0 10.0 0.02 0.24 0.24 81 1007.5
20170720150705 71 279 5.0 12.0 0.02 0.24 0.24 84 1007.2
20170720145705 72 266 10.0 18.0 0.02 0.24 0.24 78 1007.0
20170720144705 76 241 8.0 17.0 0.00 0.23 0.21 73 1006.9
20170720143705 78 254 5.0 8.0 0.00 0.23 0.21 69 1006.6
20170720142705 78 231 3.0 12.0 0.00 0.23 0.21 70 1006.6
20170720141705 79 217 2.0 12.0 0.00 0.23 0.21 69 1006.5
20170720140705 79 182 2.0 10.0 0.00 0.23 0.21 70 1006.5
20170720135705 78 177 5.0 13.0 0.00 0.23 0.21 71 1006.7
20170720134705 77 241 4.0 13.0 0.00 0.23 0.21 73 1006.7
20170720133705 77 235 3.0 8.0 0.00 0.23 0.21 74 1006.8
20170720132705 76 241 2.0 8.0 0.00 0.23 0.21 80 1006.9
20170720131705 74 135 3.0 6.0 0.00 0.23 0.21 82 1007.0
20170720130704 74 174 2.0 9.0 0.00 0.23 0.21 79 1007.0
20170720125705 75 149 2.0 8.0 0.00 0.23 0.21 78 1006.9
20170720124704 75 180 3.0 10.0 0.00 0.23 0.21 83 1007.0
20170720123704 73 144 2.0 9.0 0.00 0.23 0.21 82 1007.0
20170720122705 74 215 3.0 10.0 0.00 0.23 0.21 80 1007.1
20170720121705 74 253 6.0 9.0 0.00 0.23 0.21 79 1007.0
20170720120705 73 156 3.0 7.0 0.00 0.23 0.21 82 1006.9
20170720115704 73 238 2.0 9.0 0.00 0.23 0.21 82 1007.0
20170720114706 72 197 3.0 9.0 0.00 0.23 0.21 82 1007.0
20170720113705 73 216 4.0 12.0 0.00 0.23 0.21 82 1007.1
20170720112705 72 255 1.0 12.0 0.00 0.23 0.21 84 1007.2
20170720111705 72 234 5.0 10.0 0.00 0.23 0.21 84 1007.2
20170720110704 71 194 2.0 12.0 0.00 0.23 0.21 85 1007.2
20170720105705 71 223 3.0 9.0 0.00 0.23 0.21 85 1007.2
20170720104705 71 174 3.0 9.0 0.00 0.23 0.21 85 1007.2
20170720103705 71 160 3.0 8.0 0.00 0.23 0.21 86 1007.2
20170720102704 71 184 2.0 10.0 0.00 0.23 0.21 85 1007.2
20170720101705 71 188 3.0 9.0 0.00 0.23 0.21 86 1007.2
20170720100705 71 193 1.0 10.0 0.00 0.23 0.21 86 1007.2
20170720095705 71 184 5.0 10.0 0.00 0.23 0.21 87 1007.2
20170720094705 71 161 5.0 10.0 0.00 0.23 0.21 89 1007.3
20170720093705 69 227 3.0 6.0 0.00 0.23 0.21 92 1007.5
20170720092705 69 245 2.0 9.0 0.01 0.23 0.21 92 1007.5
20170720091707 68 186 1.0 8.0 0.01 0.23 0.21 94 1007.3
20170720090705 68 180 3.0 10.0 0.01 0.23 0.21 95 1007.4
20170720085705 67 196 1.0 7.0 0.01 0.23 0.21 95 1007.4
20170720084705 67 189 3.0 8.0 0.01 0.23 0.21 96 1007.5
20170720083705 67 178 3.0 10.0 0.01 0.23 0.21 96 1007.5
20170720082705 67 180 2.0 10.0 0.00 0.22 0.20 97 1007.6
20170720081705 66 162 4.0 9.0 0.00 0.22 0.20 96 1007.5
20170720080705 66 179 5.0 12.0 0.00 0.22 0.20 96 1007.6
20170720075705 66 178 5.0 14.0 0.00 0.22 0.20 97 1007.6
20170720074705 67 186 4.0 10.0 0.00 0.22 0.20 97 1007.5
20170720073705 67 176 3.0 9.0 0.00 0.22 0.20 97 1007.3
20170720072705 67 175 3.0 9.0 0.00 0.22 0.20 97 1007.1
20170720071705 66 161 3.0 9.0 0.00 0.22 0.20 97 1007.3
20170720070705 66 160 2.0 8.0 0.00 0.22 0.20 97 1007.3
20170720065705 66 198 2.0 10.0 0.00 0.22 0.20 97 1007.4
20170720064705 66 178 3.0 10.0 0.00 0.22 0.20 97 1007.3
20170720063705 66 216 2.0 6.0 0.00 0.22 0.20 97 1007.4
20170720062704 66 197 2.0 6.0 0.00 0.22 0.20 97 1007.3
20170720061704 66 180 2.0 7.0 0.00 0.22 0.20 97 1007.3
20170720060705 66 238 1.0 9.0 0.00 0.22 0.20 97 1007.3
20170720055705 66 236 2.0 6.0 0.00 0.22 0.20 97 1007.2
20170720054704 66 163 2.0 7.0 0.03 0.22 0.20 96 1007.1
20170720053705 65 133 3.0 5.0 0.06 0.22 0.20 96 1006.7
20170720052704 65 173 2.0 6.0 0.09 0.22 0.20 96 1007.0
20170720051704 65 171 2.0 5.0 0.13 0.22 0.20 96 1006.7
20170720050704 65 51 0.0 2.0 0.17 0.22 0.20 96 1006.3
20170720045705 65 51 1.0 3.0 0.18 0.22 0.20 96 1005.9
20170720044705 66 356 1.0 9.0 0.16 0.19 0.17 95 1005.9
20170720043705 66 275 3.0 12.0 0.13 0.17 0.15 95 1006.5